Home > Time Zones > World Clock > Weather > France > Metz > Past weeks

Flag for France Weather past 2 weeks in Metz, France

Now
59 °F

Broken clouds.


Feels Like: 57 °F
Forecast: 44 / 65 °F
Wind: 9 mph from West

Location: Metz-Nancy-Lorraine

Current Time: May 29, 2015 at 3:10:19 PM

Latest Report: May 29, 2015 at 2:30 PM


Visibility: N/A

Pressure: 29.89 "Hg

Humidity: 88%

Dew point: 55 °F

Location of MetzLocation

Historic Weather in Metz — Graph

°F

Metz temperature yesterday

Maximum temperature yesterday: 70 °F (at 2:30 PM)
Minimum temperature yesterday: 45 °F (at 5:30 AM)
Average temperature yesterday: 58 °F

Past Weeks' High & Low Weather Summary

 TemperatureHumidityPressure
High72 °F (May 18, 4:00 PM)100% (May 17, 4:30 AM)30.33 "Hg (May 17, 4:30 AM)
Low39 °F (May 21, 5:30 AM)32% (May 21, 5:30 PM)29.74 "Hg (May 18, 7:00 PM)
Average55 °F69%30.09 "Hg
* Reported May 14 2:00 PM — May 29 2:00 PM, Metz, Weather by CustomWeather, © 2015

Note: Actual official high and low records may vary slightly from our data, if they occured in-between our weather recording intervals... More about our weather records

Advertising

Metz weather history for previous 24 hours

 ConditionsComfort  
Time TempWeatherWind HumidityBarometerVisibility
2:00 PM
Fri, May 29
57 °FHeavy rain. Fog.12 mph88%29.89 "Hg2 mi
1:30 PM64 °FPartly sunny.17 mph64%29.86 "HgN/A
1:00 PM63 °FPartly sunny.15 mph68%29.86 "HgN/A
12:30 PM63 °FPartly sunny.12 mph68%29.89 "HgN/A
12:00 PM61 °FBroken clouds.9 mph72%29.89 "HgN/A
11:30 AM59 °FPassing clouds.7 mph77%29.89 "HgN/A
11:00 AM59 °FSunny.8 mph77%29.92 "Hg10 mi
10:30 AM57 °FPassing clouds.9 mph82%29.92 "HgN/A
10:00 AM57 °FSunny.8 mph72%29.92 "Hg10 mi
9:30 AM57 °FPassing clouds.7 mph77%29.92 "HgN/A
9:00 AM57 °FSunny.3 mph77%29.92 "Hg10 mi
8:30 AM55 °FSunny.2 mph82%29.92 "Hg10 mi
8:00 AM54 °FSunny.2 mph88%29.95 "Hg10 mi
7:30 AM52 °FSunny.No wind88%29.95 "Hg10 mi
7:00 AM52 °FSunny.No wind88%29.95 "Hg10 mi
6:30 AM52 °FClear.3 mph88%29.95 "Hg10 mi
6:00 AM50 °FPassing clouds.6 mph94%29.95 "HgN/A
5:30 AM52 °FPassing clouds.6 mph88%29.95 "HgN/A
5:00 AM52 °FMostly cloudy.6 mph88%29.95 "HgN/A
4:30 AM50 °FMostly cloudy.3 mph94%29.95 "HgN/A
4:00 AM50 °FMostly cloudy.No wind88%29.98 "HgN/A
3:30 AM50 °FMostly cloudy.2 mph94%29.98 "HgN/A
3:00 AM50 °FClear.2 mph82%29.98 "Hg10 mi
2:30 AM52 °FClear.No wind82%29.98 "Hg10 mi
2:00 AM54 °FClear.1 mph77%30.01 "Hg10 mi
1:30 AM54 °FClear.2 mph82%30.01 "Hg10 mi
12:00 AM54 °FClear.3 mph82%30.01 "Hg10 mi
11:30 PM
Thu, May 28
55 °FClear.2 mph77%30.01 "Hg10 mi
11:00 PM55 °FClear.No wind77%30.01 "Hg10 mi
10:30 PM57 °FClear.2 mph72%30.01 "Hg10 mi
10:00 PM57 °FSunny.3 mph72%30.01 "Hg10 mi
9:30 PM57 °FSunny.5 mph72%30.01 "Hg10 mi
9:00 PM59 °FSunny.8 mph68%30.01 "Hg10 mi
8:30 PM61 °FSunny.12 mph63%29.98 "Hg10 mi
8:00 PM63 °FSunny.16 mph64%29.98 "Hg10 mi
7:30 PM66 °FPassing clouds.14 mph52%29.98 "HgN/A
7:00 PM66 °FPassing clouds.13 mph49%29.98 "HgN/A
6:30 PM68 °FSunny.15 mph49%29.98 "Hg10 mi
6:00 PM68 °FSunny.16 mph46%29.98 "Hg10 mi
5:30 PM68 °FSunny.17 mph46%29.98 "Hg10 mi
5:00 PM70 °FPassing clouds.16 mph40%29.98 "HgN/A
4:30 PM68 °FSunny.18 mph43%30.01 "Hg10 mi
4:00 PM68 °FSunny.18 mph40%30.01 "Hg10 mi
3:30 PM68 °FPassing clouds.18 mph40%30.01 "HgN/A
3:00 PM68 °FPassing clouds.18 mph40%30.01 "HgN/A
Weather by CustomWeather, © 2015

See weather overviewHow to use our weather pages